Fort Collins, CO

12:51 AM MDT on March 25, 2017 (GMT -0600)
Fort Collins-Loveland Municipal

Weather History for KFNL - February, 2013

Change the Weather History Date:

Sunday, February 10, 2013

  Actual Average Record
Temperature  
Mean Temperature 26 °F -  
Max Temperature 37 °F - 73 °F (2017)
Min Temperature 14 °F - 0 °F (2001)
Degree Days  
Heating Degree Days 40    
Month to date heating degree days  
Cooling Degree Days 0    
Month to date cooling degree days  
Moisture  
Dew Point 13 °F    
Average Humidity 52    
Maximum Humidity 79    
Minimum Humidity 33    
Precipitation  
Precipitation 0.00 in - 0.01 in (2011)
Sea Level Pressure  
Sea Level Pressure 29.79 in    
Wind  
Wind Speed 15 mph (NNW)    
Max Wind Speed 26 mph    
Max Gust Speed 31 mph    
Visibility 10 miles    
Events      
T = Trace of Precipitation, MM = Missing Value Source: NWS Daily Summary

Daily Weather History Graph

Daily Weather History Graph

Search for Another Location

Airport or City:

Trip Planner

Search our weather history database for the weather conditions in past years. The results will help you decide how hot, cold, wet, or windy it might be!

Date:

Astronomy

Feb. 10, 2013 Rise Set
Actual Time 6:59 AM MST 5:29 PM MST
Civil Twilight 6:31 AM MST 5:57 PM MST
Nautical Twilight 5:59 AM MST 6:30 PM MST
Astronomical Twilight 5:27 AM MST 7:01 PM MST
Moon 6:50 AM MST (2/10) 6:23 PM MST (2/10)
Length of Visible Light 11h 26m
Length of Day
10h 30m
New Moon, 0% of the Moon is Illuminated
Feb 10
New Moon
Feb 17
First Quarter
Feb 25
Full
Mar 4
Last Quarter
Mar 11
New

Hourly Weather History & Observations

Time (MST) Temp. Windchill Dew Point Humidity Pressure Visibility Wind Dir Wind Speed Gust Speed Precip Events Conditions
12:15 AM 26.6 °F 16.2 °F 17.6 °F 69% 29.58 in 10.0 mi NW 11.5 mph - N/A   Mostly Cloudy
12:35 AM 26.6 °F 16.8 °F 17.6 °F 69% 29.58 in 10.0 mi NW 10.4 mph - N/A   Scattered Clouds
12:55 AM 28.4 °F 16.6 °F 17.6 °F 64% 29.58 in 10.0 mi NNW 16.1 mph - N/A   Mostly Cloudy
1:15 AM 30.2 °F 19.3 °F 17.6 °F 60% 29.59 in 10.0 mi NNW 15.0 mph - N/A   Overcast
1:35 AM 30.2 °F 18.1 °F 17.6 °F 60% 29.59 in 10.0 mi NNW 18.4 mph - N/A   Overcast
1:55 AM 30.2 °F 17.8 °F 17.6 °F 60% 29.59 in 10.0 mi NNW 19.6 mph 25.3 mph N/A   Overcast
2:15 AM 30.2 °F 18.5 °F 17.6 °F 60% 29.59 in 10.0 mi NNW 17.3 mph 23.0 mph N/A   Overcast
2:35 AM 30.2 °F 18.5 °F 17.6 °F 60% 29.60 in 10.0 mi NNW 17.3 mph - N/A   Mostly Cloudy
2:55 AM 30.2 °F 18.5 °F 17.6 °F 60% 29.60 in 10.0 mi NNW 17.3 mph 25.3 mph N/A   Mostly Cloudy
3:15 AM 30.2 °F 18.9 °F 17.6 °F 60% 29.60 in 10.0 mi NNW 16.1 mph 21.9 mph N/A   Overcast
3:35 AM 30.2 °F 19.8 °F 15.8 °F 55% 29.60 in 10.0 mi NW 13.8 mph - N/A   Overcast
3:55 AM 30.2 °F 19.3 °F 15.8 °F 55% 29.61 in 10.0 mi NW 15.0 mph - N/A   Overcast
4:15 AM 30.2 °F 19.8 °F 15.8 °F 55% 29.62 in 10.0 mi NW 13.8 mph - N/A   Overcast
4:35 AM 30.2 °F 18.5 °F 15.8 °F 55% 29.63 in 10.0 mi NW 17.3 mph 23.0 mph N/A   Overcast
4:55 AM 30.2 °F 19.3 °F 15.8 °F 55% 29.64 in 10.0 mi NNW 15.0 mph - N/A   Overcast
5:15 AM 30.2 °F 20.2 °F 15.8 °F 55% 29.65 in 10.0 mi NNW 12.7 mph - N/A   Overcast
5:35 AM 28.4 °F 18.0 °F 15.8 °F 59% 29.66 in 10.0 mi North 12.7 mph - N/A   Overcast
5:55 AM 30.2 °F 18.9 °F 15.8 °F 55% 29.67 in 10.0 mi NNW 16.1 mph 19.6 mph N/A   Overcast
6:15 AM 30.2 °F 20.8 °F 15.8 °F 55% 29.68 in 10.0 mi NNW 11.5 mph - N/A   Overcast
6:55 AM 30.2 °F 18.9 °F 15.8 °F 55% 29.70 in 10.0 mi NNW 16.1 mph 19.6 mph N/A   Overcast
7:15 AM 28.4 °F 17.5 °F 15.8 °F 59% 29.71 in 10.0 mi NNW 13.8 mph - N/A   Overcast
7:35 AM 30.2 °F 19.8 °F 15.8 °F 55% 29.72 in 10.0 mi NNW 13.8 mph - N/A   Overcast
7:55 AM 30.2 °F 19.3 °F 15.8 °F 55% 29.74 in 10.0 mi NNW 15.0 mph - N/A   Overcast
8:15 AM 30.2 °F 19.3 °F 15.8 °F 55% 29.75 in 10.0 mi NNW 15.0 mph - N/A   Overcast
8:35 AM 30.2 °F 19.8 °F 15.8 °F 55% 29.76 in 10.0 mi NNW 13.8 mph - N/A   Overcast
8:55 AM 30.2 °F 20.8 °F 15.8 °F 55% 29.77 in 10.0 mi NNW 11.5 mph - N/A   Overcast
9:15 AM 32.0 °F 21.6 °F 15.8 °F 51% 29.78 in 10.0 mi NW 15.0 mph - N/A   Overcast
9:35 AM 32.0 °F 22.1 °F 15.8 °F 51% 29.78 in 10.0 mi NNW 13.8 mph - N/A   Overcast
9:55 AM 33.8 °F 24.3 °F 15.8 °F 48% 29.79 in 10.0 mi NNW 13.8 mph - N/A   Overcast
10:15 AM 33.8 °F 23.5 °F 14.0 °F 44% 29.79 in 10.0 mi NNW 16.1 mph 20.7 mph N/A   Overcast
10:35 AM 33.8 °F 23.5 °F 14.0 °F 44% 29.80 in 10.0 mi NW 16.1 mph 24.2 mph N/A   Overcast
10:55 AM 35.6 °F 25.5 °F 12.2 °F 38% 29.81 in 10.0 mi NNW 17.3 mph - N/A   Overcast
11:15 AM 35.6 °F 24.5 °F 12.2 °F 38% 29.82 in 10.0 mi NW 20.7 mph 26.5 mph N/A   Overcast
11:55 AM 35.6 °F 25.5 °F 10.4 °F 35% 29.81 in 10.0 mi NNW 17.3 mph 24.2 mph N/A   Mostly Cloudy
12:15 PM 35.6 °F 24.8 °F 10.4 °F 35% 29.81 in 10.0 mi NW 19.6 mph 26.5 mph N/A   Mostly Cloudy
12:35 PM 35.6 °F 24.5 °F 10.4 °F 35% 29.81 in 10.0 mi NW 20.7 mph 25.3 mph N/A   Scattered Clouds
12:55 PM 35.6 °F 24.8 °F 8.6 °F 33% 29.81 in 10.0 mi NW 19.6 mph 28.8 mph N/A   Partly Cloudy
1:15 PM 37.4 °F 27.2 °F 10.4 °F 33% 29.80 in 10.0 mi NW 19.6 mph 29.9 mph N/A   Partly Cloudy
1:35 PM 35.6 °F 23.7 °F 8.6 °F 33% 29.81 in 10.0 mi North 24.2 mph 29.9 mph N/A   Partly Cloudy
1:55 PM 35.6 °F 23.2 °F 8.6 °F 33% 29.81 in 10.0 mi North 26.5 mph 31.1 mph N/A   Partly Cloudy
2:15 PM 35.6 °F 23.4 °F 8.6 °F 33% 29.82 in 10.0 mi North 25.3 mph 31.1 mph N/A   Partly Cloudy
2:35 PM 35.6 °F 23.7 °F 8.6 °F 33% 29.82 in 10.0 mi NNW 24.2 mph 31.1 mph N/A   Partly Cloudy
2:55 PM 35.6 °F 24.5 °F 8.6 °F 33% 29.83 in 10.0 mi North 20.7 mph 25.3 mph N/A   Clear
3:15 PM 35.6 °F 24.8 °F 8.6 °F 33% 29.84 in 10.0 mi NNW 19.6 mph - N/A   Partly Cloudy
3:55 PM 33.8 °F 22.2 °F 8.6 °F 35% 29.86 in 10.0 mi NNW 20.7 mph 26.5 mph N/A   Mostly Cloudy
4:15 PM 33.8 °F 22.8 °F 8.6 °F 35% 29.87 in 10.0 mi North 18.4 mph - N/A   Overcast
4:35 PM 32.0 °F 20.1 °F 8.6 °F 38% 29.87 in 10.0 mi North 19.6 mph - N/A   Overcast
4:55 PM 30.2 °F 19.8 °F 8.6 °F 40% 29.88 in 10.0 mi North 13.8 mph - N/A   Mostly Cloudy
5:15 PM 30.2 °F 18.5 °F 8.6 °F 40% 29.89 in 10.0 mi North 17.3 mph - N/A   Mostly Cloudy
5:35 PM 30.2 °F 18.9 °F 8.6 °F 40% 29.89 in 10.0 mi North 16.1 mph - N/A   Overcast
5:55 PM 28.4 °F 17.0 °F 8.6 °F 43% 29.90 in 10.0 mi North 15.0 mph - N/A   Overcast
6:35 PM 26.6 °F 16.8 °F 10.4 °F 51% 29.92 in 10.0 mi NNE 10.4 mph - N/A   Partly Cloudy
6:55 PM 26.6 °F 16.8 °F 8.6 °F 47% 29.92 in 10.0 mi North 10.4 mph - N/A   Clear
7:15 PM 26.6 °F 17.5 °F 8.6 °F 47% 29.93 in 10.0 mi NNE 9.2 mph - N/A   Clear
7:35 PM 26.6 °F 18.2 °F 8.6 °F 47% 29.94 in 10.0 mi NNE 8.1 mph - N/A   Scattered Clouds
7:55 PM 24.8 °F 19.1 °F 8.6 °F 50% 29.96 in 10.0 mi South 4.6 mph - N/A   Mostly Cloudy
8:15 PM 19.4 °F 10.4 °F 8.6 °F 63% 29.97 in 10.0 mi South 6.9 mph - N/A   Mostly Cloudy
8:35 PM 19.4 °F 10.4 °F 10.4 °F 68% 29.99 in 10.0 mi South 6.9 mph - N/A   Overcast
9:15 PM 17.6 °F 7.3 °F 8.6 °F 68% 30.01 in 10.0 mi SSE 8.1 mph - N/A   Scattered Clouds
9:55 PM 15.8 °F 4.2 °F 8.6 °F 73% 30.02 in 10.0 mi SSE 9.2 mph - N/A   Clear
10:15 PM 15.8 °F 5.1 °F 8.6 °F 73% 30.02 in 10.0 mi SSE 8.1 mph - N/A   Clear
10:35 PM 14.0 °F 5.1 °F 6.8 °F 73% 30.02 in 10.0 mi South 5.8 mph - N/A   Mostly Cloudy
10:55 PM 14.0 °F 5.1 °F 8.6 °F 79% 30.03 in 10.0 mi South 5.8 mph - N/A   Mostly Cloudy
11:35 PM 15.8 °F 6.1 °F 10.4 °F 79% 30.03 in 10.0 mi South 6.9 mph - N/A   Scattered Clouds
11:55 PM 17.6 °F 7.3 °F 10.4 °F 73% 30.04 in 10.0 mi South 8.1 mph - N/A   Mostly Cloudy